GFSNIL_850_spd_000.txt.gz
Wind_Speed
27 23 21 19 17 15 13 12 11 11 12 10 10 8 8 7 5 6 6 6 6 8
30 28 22 19 18 15 14 11 13 11 12 10 11 10 10 8 9 8 8 9 9 10
31 29 25 22 23 20 15 13 13 12 12 11 10 12 12 11 11 11 9 9 10 11
30 27 26 24 24 19 19 14 14 13 13 13 13 13 15 14 12 12 11 11 12 11
30 27 27 26 27 21 22 16 12 8 16 17 16 15 17 16 13 12 13 12 12 10
32 32 29 31 32 27 25 21 21 31 29 22 23 21 20 18 16 14 13 13 13 13
30 28 34 35 36 36 35 32 36 39 33 33 26 23 22 18 17 16 15 15 15 15
24 29 36 39 40 42 44 48 46 44 39 34 29 27 24 20 19 18 18 16 16 16
27 31 35 37 38 45 53 54 51 49 41 34 29 26 26 24 19 18 17 16 17 18
31 30 29 27 32 40 52 53 49 49 38 30 36 28 25 23 23 19 18 19 20 22
25 23 21 23 25 30 41 50 47 41 36 26 30 31 30 26 25 25 23 23 23 25
20 21 21 21 22 26 33 35 30 30 25 24 27 29 28 28 25 25 29 26 29 36
18 19 18 18 19 20 26 28 27 28 25 24 24 23 24 27 27 30 26 28 30 29
18 20 18 19 17 19 20 20 23 23 24 27 24 25 22 23 27 27 26 26 19 15

GFSNIL_850_spd_006.txt.gz
Wind_Speed
33 29 30 23 26 21 19 18 20 18 18 17 14 13 11 10 11 5 4 9 13 8
30 34 33 30 27 25 24 21 25 26 22 20 19 14 12 11 9 12 11 11 8 7
34 34 36 32 30 30 24 27 25 27 25 22 18 19 17 13 17 12 10 10 9 11
38 38 36 36 35 36 33 31 33 29 26 23 22 22 20 18 13 12 13 10 17 15
40 39 40 41 40 39 36 37 36 34 31 27 26 25 22 19 23 20 15 13 13 14
41 42 42 44 43 42 41 43 40 39 35 31 31 28 24 20 19 19 18 16 14 13
44 45 44 44 44 43 43 43 42 42 39 35 34 31 27 23 20 17 20 21 19 16
46 46 45 44 46 45 43 44 41 41 40 37 34 33 29 25 22 18 20 19 17 18
45 45 45 44 43 42 40 38 39 39 39 38 36 36 26 24 24 21 21 22 19 20
45 47 46 43 42 42 41 41 38 40 41 41 34 26 23 24 25 24 23 23 22 21
46 47 44 42 42 42 41 39 38 34 35 35 37 34 30 27 25 27 24 24 22 20
43 43 43 42 41 39 37 33 29 31 32 29 28 24 23 25 26 28 29 27 24 23
41 42 42 39 35 32 29 24 21 25 27 18 25 25 26 21 21 24 27 24 22 23
36 38 36 32 26 24 19 19 19 21 22 18 21 23 21 19 19 23 18 17 21 23

GFSNIL_850_spd_009.txt.gz
Wind_Speed
37 33 31 29 21 29 26 21 20 19 16 15 15 14 12 12 11 12 12 13 16 17
38 40 36 34 26 26 23 20 19 20 18 18 17 17 14 14 13 12 12 11 14 19
39 40 39 37 36 30 28 28 24 24 24 23 21 20 18 17 16 15 13 11 11 16
39 41 38 39 40 38 32 33 32 30 28 27 26 24 21 19 18 19 17 15 14 14
37 40 40 40 41 42 41 38 33 33 32 30 27 26 26 23 22 21 20 19 16 19
39 41 43 42 41 43 43 41 39 37 37 37 34 31 29 26 25 25 22 20 20 17
43 43 44 42 43 44 43 43 43 43 42 40 37 34 32 29 26 26 27 24 23 20
45 44 44 44 42 43 47 46 43 42 43 42 39 35 34 31 29 26 26 25 25 23
46 46 46 46 43 42 41 44 44 42 41 41 38 35 35 32 31 26 23 21 23 24
46 46 47 47 44 43 40 37 38 39 38 35 35 33 32 31 29 25 24 23 24 27
48 46 45 45 44 42 40 38 36 34 34 32 32 30 28 25 25 24 24 24 27 25
49 48 48 47 42 43 39 37 36 32 32 30 30 27 24 26 24 26 27 29 30 28
53 50 51 47 43 41 33 25 27 29 27 25 23 21 19 20 27 28 28 28 31 29
50 50 49 42 39 30 26 27 26 23 20 19 17 16 18 20 20 21 19 21 20 22

GFSNIL_850_spd_012.txt.gz
Wind_Speed
34 35 34 29 32 30 28 27 25 24 20 18 17 16 14 13 12 13 16 17 19 17
35 35 37 30 30 32 31 29 28 26 20 19 18 17 15 15 14 13 13 15 16 18
36 35 38 34 34 33 29 28 29 26 21 21 21 20 17 17 16 15 15 14 15 16
37 37 37 38 38 38 32 30 32 29 26 25 25 24 21 20 19 17 16 16 15 15
37 37 38 38 40 41 41 36 35 33 31 29 28 27 24 23 23 21 19 18 17 15
41 39 39 39 39 42 44 44 39 36 36 34 31 30 28 25 25 24 22 21 20 18
43 42 40 39 40 42 45 46 47 44 41 39 35 34 32 30 27 27 25 24 23 21
44 43 42 40 40 42 43 46 46 44 42 40 38 38 37 35 31 28 27 26 26 25
45 46 46 44 42 41 43 43 44 44 43 43 40 40 40 38 36 31 28 28 26 26
47 47 47 46 43 42 42 41 40 42 42 39 40 39 38 37 34 31 27 28 26 25
50 48 48 48 45 43 40 38 34 33 32 32 35 32 28 29 28 24 25 27 26 24
52 49 49 48 45 41 38 36 32 28 28 28 38 35 31 27 24 19 23 24 24 23
55 51 48 46 44 40 36 32 28 26 29 29 24 29 25 17 18 20 22 23 25 25
58 55 49 45 45 39 34 28 26 28 31 25 22 22 14 14 16 20 21 18 21 22

GFSNIL_850_spd_015.txt.gz
Wind_Speed
42 38 33 32 31 30 32 29 26 25 24 19 17 16 16 14 14 14 14 17 16 14
45 42 36 32 32 32 33 31 28 25 23 22 20 19 18 16 15 15 14 16 16 17
46 43 39 32 33 33 35 34 31 29 27 25 22 21 20 18 17 17 15 15 16 17
48 45 44 35 34 36 34 35 33 31 29 28 25 24 23 21 19 19 18 17 17 15
48 46 46 39 36 39 38 35 32 30 30 30 28 26 25 23 22 22 21 20 19 19
51 48 48 42 40 39 41 40 39 35 32 33 31 28 27 25 25 24 23 22 21 19
53 47 47 44 41 41 42 43 42 40 37 35 34 31 30 30 29 28 26 25 25 23
53 47 46 46 42 42 42 42 43 43 41 39 37 34 32 32 32 33 31 29 27 26
53 51 49 48 45 43 44 42 42 43 44 43 41 38 34 33 34 37 37 33 28 27
54 52 52 51 48 46 46 44 43 44 42 43 40 36 35 34 27 37 44 34 29 23
55 53 53 54 52 49 48 46 43 42 40 38 37 37 35 33 28 38 36 33 27 25
54 54 55 54 54 52 49 47 45 39 36 34 34 33 31 34 27 25 32 22 21 22
53 55 56 53 53 51 50 48 44 35 34 33 31 28 32 28 26 27 20 20 20 20
54 54 55 55 52 51 49 46 39 34 33 32 31 30 31 22 21 18 19 21 19 18

GFSNIL_850_spd_018.txt.gz
Wind_Speed
47 45 41 35 29 29 29 29 27 25 25 24 20 17 16 15 14 13 12 10 13 12
48 48 45 40 34 30 31 28 30 27 25 24 21 19 17 17 16 14 13 11 14 15
49 47 44 41 37 32 32 32 31 30 28 26 22 21 20 19 17 17 15 14 15 16
51 50 48 44 39 35 32 33 33 33 32 29 26 24 23 21 19 19 17 17 16 16
52 51 51 46 41 38 35 34 34 34 35 33 28 26 25 23 22 21 19 19 20 19
54 53 52 47 43 41 38 36 36 35 36 35 32 29 27 24 24 23 22 19 21 22
55 53 52 47 44 43 40 38 39 39 38 35 32 31 29 27 27 26 25 23 21 22
54 53 50 48 46 43 42 40 39 42 41 40 37 33 33 31 29 29 27 27 28 25
50 52 50 48 47 44 44 43 41 43 45 45 43 40 36 32 31 29 30 31 30 30
48 50 50 49 48 47 45 44 44 44 45 47 46 43 38 35 34 32 32 32 29 31
46 46 48 49 50 49 47 46 47 46 45 45 45 42 39 37 36 36 34 32 30 28
45 45 47 50 50 52 51 49 49 49 45 43 43 41 38 37 39 38 34 32 25 20
45 45 45 45 46 50 53 52 49 49 46 43 41 41 39 37 40 38 34 33 27 22
45 44 42 37 42 48 51 50 50 49 47 44 43 42 39 37 39 35 32 28 26 25

GFSNIL_850_spd_021.txt.gz
Wind_Speed
44 43 40 36 32 27 26 24 25 24 24 23 19 17 16 16 14 11 9 10 10 12
47 46 45 41 36 32 27 25 25 24 24 24 22 20 19 17 16 14 12 12 12 13
49 47 46 44 40 36 32 27 29 27 28 26 24 22 21 20 19 18 16 15 15 14
47 46 45 46 42 37 35 32 30 31 29 31 28 26 25 23 21 21 20 19 18 16
48 47 46 46 43 38 37 35 34 32 34 34 32 30 29 27 26 24 24 22 21 20
53 51 51 48 44 43 40 38 36 35 36 36 36 35 33 31 29 28 27 24 22 22
53 52 53 50 46 45 42 41 39 38 36 38 38 39 37 34 33 32 30 28 28 27
47 47 49 51 47 46 46 43 41 40 39 39 40 41 42 40 38 37 33 31 32 30
46 45 47 48 46 45 46 45 43 44 43 41 44 44 43 42 41 40 36 35 34 32
46 46 45 45 45 44 46 45 46 46 45 45 45 47 45 44 41 41 39 38 36 33
46 46 46 46 45 44 46 47 48 47 48 46 46 48 48 47 44 44 41 40 38 34
45 45 45 47 45 45 45 48 49 49 48 50 49 48 48 46 46 47 46 42 43 36
41 42 42 45 46 45 44 46 50 51 49 50 49 49 48 46 46 48 49 46 43 36
36 38 39 41 40 42 43 45 50 53 52 49 48 50 48 44 44 47 48 46 42 38

GFSNIL_850_spd_024.txt.gz
Wind_Speed
40 35 31 29 24 21 20 19 19 21 22 22 21 19 18 14 13 13 12 11 11 10
44 43 34 33 30 27 23 19 20 20 21 22 23 22 20 17 18 18 16 15 14 13
46 45 43 42 38 34 29 29 22 23 22 23 24 25 24 21 22 22 21 19 19 17
48 47 45 46 45 42 39 36 32 30 26 26 26 27 27 26 23 26 25 24 23 22
48 49 48 48 46 44 41 39 37 35 31 31 29 30 31 31 27 30 29 29 27 24
47 48 49 48 46 45 42 40 39 39 38 35 35 34 35 34 34 32 31 30 29 25
52 53 51 49 47 45 45 43 43 42 40 40 37 36 37 38 38 36 34 33 31 27
48 49 51 52 51 49 48 47 45 44 43 41 40 36 41 42 42 42 39 36 35 33
44 44 44 47 50 50 50 49 47 47 47 46 45 42 43 44 46 47 45 41 38 35
45 44 44 42 44 46 48 47 49 49 50 51 50 48 47 47 48 51 50 47 41 34
44 44 36 40 42 43 44 46 48 50 50 52 53 51 50 47 47 48 46 43 39 36
40 38 38 41 42 42 41 43 47 48 50 52 55 53 52 49 48 48 44 38 36 35
35 38 40 39 40 41 41 41 37 41 49 53 55 55 53 52 50 47 48 43 46 47
32 34 35 35 37 39 40 36 39 42 45 49 54 56 56 54 54 53 44 44 38 38

GFSNIL_850_spd_030.txt.gz
Wind_Speed
39 35 35 31 28 29 26 22 24 22 21 19 19 20 17 17 14 14 15 14 16 14
45 41 37 37 32 26 27 23 24 24 24 22 21 22 23 22 19 15 15 14 15 17
44 45 42 39 36 34 27 29 21 27 27 24 22 25 23 25 23 21 22 19 18 18
46 44 43 44 39 38 35 28 28 21 28 27 24 26 29 29 26 27 27 25 22 21
46 45 44 46 46 42 41 38 34 33 29 32 30 27 29 32 32 30 30 30 30 28
46 47 47 46 45 46 44 42 39 39 40 36 34 31 29 31 32 34 33 34 33 31
47 48 46 46 46 45 47 46 45 44 43 43 42 39 36 34 34 34 36 36 35 35
44 45 46 45 46 46 46 48 47 46 46 46 45 44 42 40 39 38 38 38 38 38
44 43 45 45 45 47 49 48 47 49 48 48 49 48 45 43 43 42 41 41 41 41
46 47 47 47 48 49 49 48 49 49 49 50 51 51 49 45 44 44 44 43 43 43
45 47 48 48 49 49 49 51 51 51 51 51 53 52 51 49 47 48 48 47 46 46
42 45 47 50 50 48 48 48 51 51 50 53 55 54 53 51 50 52 54 54 53 51
43 48 49 49 49 48 47 46 44 47 48 48 50 50 50 49 50 55 59 58 59 57
36 41 45 45 42 44 43 41 42 43 42 44 45 46 46 45 47 56 53 52 53 56

GFSNIL_850_spd_033.txt.gz
Wind_Speed
40 35 34 32 29 30 28 25 20 21 18 18 17 17 18 17 13 15 20 20 20 18
44 40 36 36 32 29 27 25 21 18 19 18 16 17 20 19 18 18 17 19 21 20
42 44 41 35 37 32 29 29 23 23 22 23 21 19 19 23 22 21 19 18 17 20
44 45 46 41 38 39 33 30 32 26 25 29 26 24 21 24 27 27 24 23 21 19
43 44 46 46 41 41 40 37 32 35 33 24 29 28 25 23 27 29 29 28 27 25
43 44 44 45 43 42 43 42 40 34 34 37 30 30 29 25 26 28 30 31 31 30
43 43 44 43 43 44 45 44 42 42 41 36 38 36 34 32 29 28 29 33 36 35
43 41 41 42 42 41 43 46 46 45 44 45 45 43 43 41 38 35 33 33 36 40
40 40 42 43 43 44 43 42 43 45 46 47 48 48 47 45 44 42 40 39 38 40
41 39 40 39 41 44 44 44 44 45 46 48 48 48 49 47 46 46 45 43 42 42
46 44 41 41 41 41 42 44 44 45 45 46 47 46 46 46 46 49 49 49 47 46
47 46 45 46 45 43 43 42 44 45 46 48 48 47 45 43 45 48 52 52 52 52
40 44 45 45 46 45 45 45 43 44 44 45 46 45 44 42 43 47 49 51 54 56
40 43 44 41 42 45 46 45 46 45 44 43 41 41 40 40 40 43 45 49 53 55

GFSNIL_850_spd_036.txt.gz
Wind_Speed
37 34 33 34 31 29 27 25 21 21 19 16 18 17 16 18 18 17 17 18 15 13
39 37 36 34 34 32 31 27 23 23 22 19 16 18 17 18 20 17 17 19 19 18
41 39 37 36 34 34 31 29 27 24 23 19 18 17 18 18 19 20 19 19 20 23
42 41 42 40 36 34 33 31 30 26 22 22 22 21 23 21 19 23 23 22 22 22
43 42 43 44 41 37 36 34 30 30 30 25 25 27 26 26 23 24 26 27 26 25
43 42 42 44 42 40 38 37 36 32 34 36 34 27 28 30 27 24 26 28 31 31
43 41 39 40 42 42 40 39 40 41 39 36 36 36 34 30 29 28 26 27 30 32
40 38 37 38 39 40 41 40 41 42 45 43 42 39 36 35 35 33 31 30 31 32
39 38 38 37 36 36 38 39 39 42 43 45 46 46 45 43 40 39 39 38 37 37
37 38 37 36 37 37 36 36 38 40 41 44 46 46 46 45 45 45 45 44 42 42
39 37 35 35 37 37 35 36 36 38 40 41 42 41 41 42 43 45 46 46 46 45
40 38 36 36 34 32 32 32 33 33 35 38 39 37 36 36 38 42 44 45 46 46
42 40 40 37 36 34 35 35 35 36 36 36 35 34 33 32 33 37 40 41 45 48
41 39 38 39 38 39 39 39 40 39 39 38 37 35 32 30 31 34 35 38 40 40

GFSNIL_850_spd_039.txt.gz
Wind_Speed
38 34 31 30 30 30 29 25 20 18 17 16 16 16 14 15 15 14 19 18 16 14
41 37 33 32 30 32 29 24 22 19 18 18 17 16 17 16 17 17 18 19 19 17
42 38 34 33 33 32 30 28 24 22 21 20 20 19 18 19 17 19 19 20 21 22
45 40 35 35 34 33 32 30 28 27 24 23 21 19 21 20 19 20 21 21 23 23
45 42 40 36 34 33 33 31 31 28 27 24 22 21 22 22 22 22 21 23 25 26
49 47 44 38 35 34 34 34 33 33 31 30 28 25 25 26 26 26 26 24 25 27
49 47 42 38 37 36 34 35 37 35 36 33 30 32 31 28 25 27 29 29 27 26
43 42 40 38 36 34 35 35 37 38 38 39 38 34 32 33 33 34 31 30 30 29
42 41 39 37 35 34 34 34 35 39 40 42 42 43 41 38 36 35 34 35 35 34
43 41 36 35 36 35 34 33 35 36 38 41 43 43 42 42 43 43 43 42 42 41
45 42 38 39 38 36 36 36 35 34 35 37 39 38 38 40 42 43 44 45 44 44
40 37 37 36 35 32 33 33 33 33 32 34 34 33 32 32 35 38 40 40 41 42
34 34 34 31 29 26 27 27 28 28 28 26 27 26 23 25 28 33 35 36 37 39
32 33 33 31 29 28 29 29 31 31 31 31 30 29 27 25 27 28 30 32 32 31

GFSNIL_850_spd_042.txt.gz
Wind_Speed
38 38 35 29 24 24 27 26 20 19 17 14 12 11 11 12 13 14 16 17 16 13
39 39 38 31 26 24 24 25 23 18 16 16 14 13 13 14 15 16 15 15 17 16
41 38 36 33 30 27 25 24 23 21 19 18 17 16 16 16 16 17 17 16 17 18
44 42 38 34 32 28 25 24 25 24 21 20 19 18 19 20 18 19 18 19 19 19
42 42 41 38 33 30 27 26 26 26 25 25 22 21 20 20 19 19 19 18 20 21
46 44 42 40 36 32 28 28 28 28 29 27 26 24 22 22 22 21 22 21 21 20
48 46 44 39 38 35 31 29 30 31 30 30 28 28 26 25 24 24 25 25 25 24
43 45 42 40 38 36 34 32 31 32 34 32 32 33 30 30 29 28 28 27 26 26
39 41 41 39 37 36 35 33 33 34 34 36 36 34 34 33 32 32 32 33 32 31
38 38 37 37 37 36 36 33 34 34 34 36 37 37 36 36 38 39 38 38 37 36
38 36 36 38 37 37 36 35 35 34 34 35 37 36 37 38 39 41 42 42 42 42
36 35 36 37 37 36 36 35 35 33 32 33 33 32 31 32 36 40 41 41 41 41
34 32 32 32 33 32 32 32 32 33 31 30 28 26 24 26 29 34 35 35 36 36
29 29 29 29 29 29 28 26 28 27 24 23 22 21 20 21 25 27 28 30 29 29

GFSNIL_850_spd_045.txt.gz
Wind_Speed
37 35 32 30 28 23 23 25 25 22 20 17 13 11 11 10 10 10 9 12 11 11
41 39 36 31 29 27 22 20 20 21 18 18 16 14 12 13 11 11 12 12 12 13
42 39 36 33 30 29 25 19 19 21 21 19 18 16 15 15 13 14 13 13 13 13
42 39 37 35 31 30 27 22 21 22 24 22 21 20 19 18 17 16 15 15 15 15
43 38 38 37 34 31 29 26 24 23 26 24 24 23 22 20 19 19 18 16 17 16
45 43 39 36 35 33 30 29 26 26 27 28 27 25 24 23 22 21 19 18 19 17
47 44 40 36 34 32 31 31 29 28 28 29 29 28 27 26 25 24 23 22 22 22
44 44 42 41 37 32 31 32 31 29 30 30 29 30 29 29 28 27 27 26 25 24
41 42 41 41 39 37 33 33 33 34 32 32 33 32 31 30 30 30 31 30 28 27
37 38 38 37 38 37 35 34 36 35 34 36 35 34 33 32 33 35 35 34 33 32
34 34 34 36 37 36 35 36 36 36 36 36 37 36 34 34 36 38 39 38 38 38
36 34 35 36 35 35 35 36 36 35 36 36 36 35 33 33 35 39 41 41 41 41
33 32 31 30 32 32 32 33 34 35 35 35 34 33 30 30 33 37 38 38 39 39
32 33 30 29 30 31 32 32 32 33 33 34 33 31 29 29 32 34 32 32 31 31

GFSNIL_850_spd_048.txt.gz
Wind_Speed
37 29 27 25 19 18 17 16 15 15 15 14 12 10 9 8 7 8 7 9 9 7
39 37 28 27 24 22 19 16 16 17 17 16 16 15 12 10 9 10 8 9 9 9
41 41 38 29 30 24 21 21 18 16 17 17 17 17 16 12 12 11 10 9 11 10
39 40 41 35 35 32 28 25 21 20 18 19 18 18 20 18 14 13 12 13 13 13
45 42 35 39 36 34 31 28 26 24 22 21 20 19 20 20 16 17 16 15 15 15
40 40 41 40 37 35 32 29 28 28 26 24 23 21 22 23 20 19 18 17 18 17
45 43 42 42 39 36 33 30 30 31 28 27 26 24 23 23 24 22 20 20 19 19
47 47 45 42 40 37 34 32 32 32 31 29 27 25 27 25 24 24 24 22 22 23
48 47 46 45 43 40 36 35 34 34 33 32 28 27 30 28 24 25 24 25 25 25
49 49 47 45 43 42 40 37 37 36 35 35 33 31 31 30 30 25 26 27 26 25
49 48 47 47 46 44 41 41 40 38 37 36 36 34 33 32 32 34 34 33 31 33
46 45 45 46 45 43 41 40 40 39 39 39 38 37 34 34 35 37 38 38 39 39
44 43 43 43 43 42 41 41 38 38 39 40 39 38 37 35 35 34 34 37 39 41
41 41 40 39 37 37 39 36 39 37 37 38 38 37 37 35 36 35 30 29 28 27

GFSNIL_850_spd_051.txt.gz
Wind_Speed
38 26 27 23 19 19 17 15 16 16 14 12 11 9 9 7 8 8 8 9 11 6
41 36 26 26 25 19 19 16 17 14 14 15 14 12 12 11 9 9 10 9 11 10
40 40 35 30 27 24 21 22 13 18 18 17 17 16 17 12 13 13 11 9 12 10
42 37 39 35 34 31 24 22 23 18 17 18 18 18 20 18 14 15 14 15 12 14
43 41 36 41 39 32 32 27 23 21 21 19 20 19 20 19 17 17 14 15 15 15
41 44 42 40 42 37 35 33 26 25 24 22 23 23 22 21 20 19 18 18 19 18
45 45 43 42 42 41 38 36 33 29 27 25 23 23 23 22 22 21 20 20 20 20
47 47 45 43 43 43 40 38 35 32 31 29 25 23 26 26 24 23 22 22 22 22
45 46 46 46 45 44 43 40 37 36 34 33 28 26 27 26 26 25 24 24 24 24
44 47 48 47 46 45 45 42 41 39 37 37 36 29 29 30 30 26 26 26 26 23
44 47 48 47 49 48 45 44 43 42 40 39 38 34 32 31 31 31 31 29 27 27
48 46 47 49 50 50 47 45 45 44 42 42 41 36 33 32 32 33 35 34 34 34
48 47 49 51 51 50 49 48 46 46 45 44 42 39 37 35 34 31 31 33 35 37
46 47 48 46 47 49 50 40 46 39 43 44 43 42 40 39 39 36 29 29 28 27

GFSNIL_850_spd_054.txt.gz
Wind_Speed
35 32 29 19 23 17 17 20 16 15 11 11 10 9 8 8 10 9 15 15 12 8
40 36 34 30 23 22 21 15 17 17 13 13 13 9 10 7 7 11 9 8 10 13
46 43 36 35 27 25 21 19 14 18 18 15 16 15 14 10 10 14 9 10 9 7
46 45 42 35 33 30 28 23 27 16 17 17 17 20 19 17 15 15 12 14 10 14
46 44 44 44 38 36 32 31 28 27 20 20 21 20 21 19 23 15 19 14 20 15
44 45 45 44 46 38 38 35 34 31 29 29 24 22 21 20 19 21 19 16 15 18
46 46 47 44 43 45 40 39 38 35 32 29 26 23 24 24 22 20 25 23 22 22
46 47 45 45 43 42 47 43 40 37 34 32 29 27 27 27 26 24 23 23 24 24
45 45 45 45 43 43 42 44 43 40 37 35 33 30 25 25 26 27 27 24 25 26
43 46 46 44 45 43 44 43 44 42 39 38 37 33 27 27 28 27 28 28 26 25
44 46 47 46 45 46 45 45 44 43 41 40 39 36 32 30 30 31 30 29 27 27
49 48 48 48 47 48 46 46 45 43 43 43 41 39 35 33 34 34 34 32 33 32
48 49 50 49 47 47 47 47 45 44 44 44 42 40 38 35 34 38 37 35 35 33
45 50 47 46 45 45 46 44 45 45 44 44 44 42 40 38 37 38 36 36 35 33

GFSNIL_850_spd_057.txt.gz
Wind_Speed
38 34 30 23 20 19 13 12 13 9 9 9 9 9 9 11 16 18 15 13 11 8
37 38 36 30 26 24 18 14 18 17 13 11 8 10 10 9 13 14 16 17 15 14
43 38 38 35 30 30 27 24 17 20 21 15 10 13 11 10 11 12 11 10 13 16
48 44 39 39 36 31 29 28 22 16 20 17 12 13 16 13 13 10 9 11 10 11
47 49 45 42 41 37 32 29 23 22 22 21 17 15 18 17 17 17 16 15 13 16
45 48 51 47 44 42 39 34 31 24 25 24 22 19 17 19 19 23 20 17 18 18
47 47 48 49 47 45 41 38 39 35 33 32 32 27 23 21 19 20 27 22 20 19
47 45 44 46 46 46 46 43 40 40 41 37 33 29 26 24 23 21 22 25 27 23
46 43 44 44 44 43 46 47 43 42 42 40 37 33 29 27 26 26 24 23 22 25
46 44 43 44 43 44 43 44 48 45 42 42 40 36 31 28 28 27 27 27 24 23
50 46 43 42 44 43 43 42 43 46 45 43 41 37 34 30 28 27 26 26 25 25
52 48 46 43 41 42 42 43 41 41 42 43 41 38 35 32 31 33 32 30 29 28
52 49 48 44 42 40 40 41 42 42 41 41 41 39 37 34 34 35 37 35 34 33
53 51 48 45 43 41 40 40 41 42 42 41 41 40 38 37 37 37 38 38 37 36

GFSNIL_850_spd_060.txt.gz
Wind_Speed
37 33 29 23 25 23 22 17 13 14 14 11 12 12 15 17 19 18 15 12 10 9
39 38 35 28 26 25 23 14 17 14 14 13 11 10 11 14 16 20 18 16 14 12
40 41 40 34 29 27 25 21 17 18 19 17 15 11 11 13 15 18 19 19 18 17
43 42 43 41 37 30 29 25 24 21 17 23 19 14 14 14 16 16 16 15 14 17
41 45 44 44 43 38 32 30 29 27 22 24 23 18 15 17 17 17 16 14 14 14
43 44 48 46 45 43 38 34 33 33 29 24 24 21 16 16 18 19 19 17 17 15
45 44 44 48 48 46 44 40 37 33 32 29 27 26 21 17 16 19 21 22 20 18
47 44 43 43 47 50 48 47 44 40 37 32 31 30 28 24 22 20 21 23 25 23
48 47 46 43 43 46 50 52 49 48 44 41 38 34 31 28 25 23 23 23 24 23
47 46 46 44 42 44 45 48 53 52 48 46 44 43 39 34 31 28 26 25 25 24
47 45 44 42 41 43 44 46 49 51 52 50 48 45 42 38 35 32 30 28 26 24
42 45 48 44 40 40 42 43 45 47 46 51 50 46 43 40 39 36 34 30 28 26
32 40 52 49 45 41 41 41 42 43 46 46 46 46 42 40 40 39 37 34 32 30
36 32 49 53 52 45 43 42 41 42 42 44 44 43 41 38 38 39 38 38 36 33

GFSNIL_850_spd_063.txt.gz
Wind_Speed
30 31 28 25 21 22 20 17 11 13 14 10 12 14 14 17 17 15 13 10 8 7
31 35 32 28 21 22 22 19 17 15 13 14 12 15 15 16 17 18 17 14 13 10
32 35 36 31 28 22 22 22 22 18 15 14 15 14 15 13 15 18 21 19 16 15
29 33 36 35 33 29 23 22 21 18 17 18 17 16 15 15 15 16 18 21 21 19
31 29 34 37 38 35 30 26 25 23 22 20 19 21 20 17 17 17 18 17 18 16
39 34 32 35 39 40 37 33 29 28 27 25 23 22 24 21 18 19 18 18 18 18
44 40 34 32 36 40 42 40 37 33 29 28 27 25 23 22 19 18 20 20 21 20
47 43 38 36 33 35 42 42 43 40 36 32 29 28 29 26 24 22 19 19 21 23
42 46 43 38 38 36 35 41 44 45 44 41 38 34 32 31 29 27 26 24 23 23
38 44 43 40 40 39 38 37 40 45 48 47 45 42 38 37 34 32 30 27 26 25
34 40 40 40 40 39 37 38 40 41 44 48 50 47 45 42 40 41 38 35 32 30
34 38 39 40 41 38 35 35 38 40 42 43 46 48 47 45 43 43 42 40 37 35
33 39 39 38 37 38 34 34 34 36 37 41 42 44 44 44 46 46 46 44 42 38
20 30 36 36 37 34 31 32 35 37 36 34 37 41 42 42 40 45 46 46 44 40

GFSNIL_850_spd_066.txt.gz
Wind_Speed
28 26 24 23 21 19 16 12 11 9 9 7 7 11 9 11 13 12 10 8 6 5
26 29 26 26 24 20 17 15 15 14 10 11 9 8 11 10 13 12 13 12 10 9
26 27 27 27 26 23 18 17 16 15 14 11 10 10 10 11 12 15 16 15 14 13
31 27 28 30 29 26 22 19 17 15 15 14 12 11 11 9 11 12 13 15 17 17
33 31 30 30 31 30 28 23 20 19 18 15 14 13 15 13 12 13 14 13 15 16
40 36 33 31 31 32 32 30 26 23 23 21 18 17 15 16 17 15 15 14 15 15
45 42 38 34 31 32 33 35 33 30 28 26 23 21 19 18 18 17 15 15 17 17
44 45 44 42 37 33 33 36 37 36 34 31 29 26 24 22 21 19 18 15 14 16
39 41 42 43 42 39 37 35 38 39 40 38 37 33 29 24 24 24 24 22 20 19
35 37 37 36 39 41 40 38 37 38 41 41 40 39 36 33 30 28 28 27 24 22
34 33 33 34 35 35 37 39 38 38 38 39 41 42 41 40 38 37 35 32 30 29
28 30 29 30 31 32 34 34 35 37 39 40 38 38 39 43 44 43 42 40 36 34
24 31 32 32 31 31 32 32 31 33 34 35 35 35 36 36 41 47 47 45 43 39
18 20 29 33 31 31 32 33 32 31 31 32 30 28 28 32 37 41 43 45 45 43

GFSNIL_850_spd_069.txt.gz
Wind_Speed
26 26 23 19 19 16 14 11 9 8 8 6 8 9 8 9 12 12 8 6 4 3
28 28 27 23 20 18 17 15 13 11 7 9 8 6 10 9 10 11 10 9 8 6
30 27 27 25 23 23 20 18 16 14 12 10 9 10 7 9 9 11 11 11 12 10
34 31 27 26 25 24 23 20 18 16 14 13 12 11 10 8 9 10 11 13 15 14
36 35 32 26 26 27 26 25 20 18 16 15 16 15 13 11 10 8 9 10 12 13
42 39 36 30 26 28 31 29 26 23 21 19 18 16 14 13 14 12 11 11 12 12
35 42 40 36 31 28 28 32 32 30 26 24 23 22 19 17 15 14 15 13 14 15
30 33 40 41 38 34 32 30 32 34 33 30 28 27 25 21 19 17 16 16 14 13
31 32 34 36 38 39 38 35 33 35 37 37 36 33 30 26 25 23 22 21 19 18
29 30 31 32 34 36 37 38 38 38 36 38 40 40 37 33 30 28 25 24 23 23
30 28 28 29 31 31 32 34 35 38 39 39 38 40 41 39 38 37 34 32 29 28
21 25 25 27 29 28 30 32 33 35 37 39 40 38 37 39 41 42 42 40 38 36
14 21 24 27 29 30 30 30 30 32 34 35 36 37 37 37 38 42 45 46 45 42
12 16 26 28 27 28 29 28 31 32 32 32 33 33 34 36 39 42 42 43 44 45

GFSNIL_850_spd_072.txt.gz
Wind_Speed
21 16 16 13 12 11 9 8 9 10 9 9 10 10 10 7 10 10 6 6 7 4
24 20 17 16 14 13 12 11 11 10 10 10 9 10 10 9 12 11 10 7 7 6
26 24 21 19 17 15 14 14 14 14 13 11 11 10 9 10 10 12 11 10 11 10
24 26 23 22 20 19 17 16 17 17 15 14 13 12 12 11 11 10 11 12 12 12
25 24 22 24 23 20 20 18 18 17 18 17 15 15 14 13 11 11 11 11 12 13
26 26 26 25 25 24 22 22 19 18 18 17 17 17 17 15 14 13 12 11 12 12
26 28 24 26 28 27 26 24 25 23 20 20 18 18 18 17 16 15 15 15 14 14
19 20 23 24 27 30 29 28 26 27 26 24 20 20 21 20 19 18 17 16 17 15
19 18 20 22 26 29 31 33 32 29 28 28 27 26 27 25 20 20 19 18 19 18
20 19 19 20 21 26 32 33 35 36 33 33 32 32 33 33 28 23 22 22 22 21
11 16 17 20 22 23 25 27 31 34 37 38 37 34 33 36 37 35 31 27 25 25
3 9 12 19 24 25 25 26 27 29 32 36 38 37 36 35 36 38 42 40 38 34
9 9 11 19 26 28 28 29 26 26 29 31 36 37 37 37 37 33 34 39 42 45
14 9 9 13 20 25 27 28 27 29 27 29 31 37 40 39 39 38 34 34 35 36

GFSNIL_850_spd_075.txt.gz
Wind_Speed
15 12 14 12 12 7 6 7 13 9 10 9 7 7 10 9 11 9 7 7 7 7
17 16 14 14 11 9 9 17 7 8 9 8 8 8 10 9 10 8 11 8 10 9
19 17 18 15 15 13 12 11 14 11 9 10 10 10 11 9 9 13 9 10 12 13
17 18 17 17 16 16 15 11 12 7 11 10 10 11 11 13 9 11 14 15 10 12
17 17 18 18 18 16 17 16 15 16 14 14 13 13 13 13 11 11 12 13 14 14
18 18 19 20 18 19 17 17 16 16 16 16 16 15 17 16 14 13 13 13 14 14
18 18 18 19 20 19 20 18 18 19 19 17 16 16 16 17 17 15 15 15 15 15
15 17 20 19 20 21 21 21 20 19 21 21 19 18 19 19 18 17 17 17 18 17
9 16 15 17 20 22 23 24 24 23 23 24 23 23 23 23 22 22 21 21 19 20
16 16 17 17 20 20 24 24 26 27 26 27 29 26 29 30 28 25 24 24 25 22
9 12 16 21 20 23 22 23 26 29 30 31 31 32 30 33 36 34 33 29 25 27
4 7 11 17 18 20 23 26 28 27 29 32 34 34 34 34 35 35 38 39 38 36
10 16 15 15 14 13 21 22 23 24 28 31 34 35 36 38 37 34 38 37 40 41
14 13 12 17 19 20 16 21 25 25 29 32 33 33 36 37 37 39 35 36 35 35

GFSNIL_850_spd_078.txt.gz
Wind_Speed
20 15 7 9 9 13 10 14 9 9 6 10 11 12 14 10 13 9 10 12 7 5
16 15 14 14 12 12 2 14 14 11 9 10 8 6 9 13 11 13 11 8 14 7
19 15 18 15 11 9 7 10 12 12 8 8 8 9 10 10 9 12 9 12 15 13
18 18 19 21 20 18 15 17 4 13 10 11 11 9 12 15 14 13 13 14 10 14
21 16 16 18 20 16 18 21 13 11 9 12 10 12 11 10 9 9 7 17 18 12
23 22 21 18 15 17 16 14 17 20 19 18 18 16 15 14 14 13 11 11 12 13
28 24 22 20 19 16 18 18 16 16 18 15 17 17 18 16 16 16 14 14 13 14
10 23 18 19 20 19 19 19 20 18 21 21 18 16 15 15 14 15 18 18 17 16
17 21 9 15 22 23 23 23 22 22 21 23 25 19 20 18 18 18 18 18 19 18
11 12 19 16 17 21 24 23 24 24 25 25 25 24 23 24 24 25 24 24 24 22
2 10 22 20 19 20 22 22 26 26 26 28 29 28 27 27 30 31 32 31 26 24
7 7 9 12 19 21 20 22 24 25 28 32 31 31 31 29 31 35 37 37 35 35
8 8 10 13 13 12 16 19 21 25 27 31 33 34 34 34 35 35 38 39 40 39
13 12 11 12 14 20 20 19 22 26 27 28 29 30 32 35 34 37 39 40 38 37

GFSNIL_850_spd_081.txt.gz
Wind_Speed
21 18 12 17 15 13 10 12 12 11 10 10 13 15 15 12 15 14 11 8 7 4
20 18 12 11 11 12 10 19 17 11 11 11 12 9 12 13 15 13 14 14 12 9
23 20 17 14 14 12 16 10 17 14 12 14 10 7 8 10 11 16 13 14 13 14
20 20 21 21 17 15 13 12 8 16 12 14 15 14 10 11 13 13 17 9 12 14
21 21 19 22 19 20 20 14 12 8 15 11 14 12 12 10 15 11 14 13 16 15
20 19 19 20 25 22 20 20 19 17 12 13 15 14 13 15 13 14 13 9 15 20
24 22 20 20 18 18 19 19 17 16 18 18 15 16 20 17 15 18 17 14 12 13
17 18 18 20 18 20 20 19 19 18 19 19 20 19 21 19 16 15 18 19 18 18
9 19 24 15 15 19 21 22 20 20 19 22 22 20 19 15 14 13 14 17 18 19
10 19 18 27 30 23 23 23 24 23 23 23 23 24 20 19 23 23 22 20 18 19
15 19 14 20 21 22 22 24 23 23 25 26 25 25 26 26 28 27 27 27 27 26
3 4 5 10 18 22 20 21 22 23 25 28 28 27 28 28 29 32 34 33 33 33
1 2 3 6 10 13 15 18 21 23 26 26 28 28 28 28 31 33 32 34 37 38
9 8 8 8 9 10 13 15 18 20 20 23 22 25 27 28 29 32 32 34 37 38

GFSNIL_850_spd_084.txt.gz
Wind_Speed
20 19 16 15 16 14 12 12 15 16 11 11 12 16 16 18 15 13 11 9 5 4
23 20 16 15 18 15 13 13 13 14 11 10 13 13 15 16 18 17 16 14 10 9
25 20 20 16 15 13 13 10 12 17 15 14 13 12 11 13 15 16 18 18 16 14
27 24 19 20 18 17 15 14 12 15 12 14 16 15 12 10 13 17 19 16 17 16
20 21 21 22 21 18 16 15 13 10 15 14 17 16 15 12 13 13 11 16 17 16
23 23 22 22 24 23 20 20 19 17 14 15 16 17 15 12 11 16 16 15 16 17
23 25 23 23 23 23 23 20 20 20 19 18 16 18 17 16 14 15 18 17 15 15
11 18 26 26 25 23 23 24 24 22 18 18 19 18 19 20 19 18 18 18 18 17
21 16 23 24 26 22 22 23 21 23 22 21 21 20 20 20 21 19 16 16 19 19
16 16 13 23 21 25 21 19 20 24 23 23 24 22 22 21 21 21 20 20 19 18
15 8 11 20 20 23 24 19 22 25 27 26 25 24 24 23 24 26 27 25 25 27
7 13 16 18 19 22 24 26 22 25 26 29 28 26 24 27 29 28 30 31 32 31
4 5 9 12 10 12 15 18 21 24 26 27 29 26 27 28 28 30 31 30 31 32
7 8 9 9 11 11 10 11 13 20 18 19 19 19 19 19 25 28 30 30 30 32

GFSNIL_850_spd_087.txt.gz
Wind_Speed
21 18 15 12 10 9 9 12 14 14 13 10 11 15 12 14 15 12 10 7 5 3
23 20 16 13 13 15 13 12 15 14 12 10 11 15 18 15 17 18 16 13 10 8
25 22 16 15 14 16 15 15 13 15 13 13 11 14 15 17 15 18 18 18 16 13
26 24 20 18 16 16 13 14 12 11 15 15 15 14 15 12 13 17 16 18 18 19
22 26 25 20 18 19 17 16 14 13 11 13 11 15 17 14 11 12 14 16 19 18
20 19 18 19 18 19 20 17 15 13 12 11 13 14 16 15 13 13 14 14 15 18
19 19 20 21 21 19 21 21 19 18 17 16 15 16 17 18 15 15 15 16 17 16
12 8 9 20 23 22 23 23 24 20 18 17 16 18 19 19 18 17 18 17 17 19
23 23 16 11 12 21 23 19 23 21 22 19 19 17 17 18 20 19 19 19 18 16
14 16 19 20 15 17 20 17 16 18 20 22 21 19 21 20 21 21 21 20 19 17
11 14 20 20 19 21 22 21 23 21 17 22 21 22 22 23 24 24 24 24 24 24
9 13 14 11 17 15 20 18 19 24 25 21 21 24 25 24 25 27 28 26 27 29
4 6 10 14 11 12 12 18 17 22 23 24 22 20 24 25 26 29 28 27 27 27
6 7 8 9 10 10 13 13 14 15 13 13 14 14 19 14 19 24 27 26 26 25

GFSNIL_850_spd_090.txt.gz
Wind_Speed
19 15 11 9 6 3 7 7 9 9 8 10 9 9 11 11 11 9 8 6 3 3
18 18 14 12 10 9 9 8 10 11 8 10 9 10 12 12 12 12 13 12 10 7
17 18 16 12 11 9 12 12 14 12 12 11 10 9 11 15 16 13 14 15 15 13
18 19 19 16 12 11 9 12 15 11 12 13 12 13 13 13 13 16 15 15 15 16
20 19 21 19 14 13 12 11 10 12 12 10 12 11 12 12 13 12 11 13 15 15
21 20 18 19 20 18 17 17 15 13 12 9 7 11 10 13 13 14 12 11 11 10
10 11 13 13 15 16 16 17 17 15 13 13 11 11 12 14 15 14 13 10 11 12
20 7 4 11 14 14 14 16 17 17 16 13 12 11 13 14 16 17 16 14 14 14
16 20 16 9 5 6 11 13 14 16 17 20 18 16 15 15 16 17 17 17 16 16
11 17 18 19 15 10 9 10 11 11 10 14 16 18 19 18 18 18 18 18 17 16
12 15 15 15 17 14 15 16 13 15 13 14 12 16 18 19 19 20 20 20 20 20
9 9 8 8 9 14 14 13 19 22 17 14 18 17 16 18 20 21 22 22 22 23
4 6 9 9 9 8 8 9 9 11 17 22 21 20 21 20 19 20 23 25 24 23
5 5 5 6 7 8 9 8 7 6 7 11 19 23 23 21 21 21 20 21 24 24

GFSNIL_850_spd_093.txt.gz
Wind_Speed
15 14 8 7 5 4 8 5 7 10 9 12 10 7 9 9 9 7 5 4 3 2
15 14 13 9 8 5 6 7 6 9 8 10 11 10 9 11 11 11 11 9 8 7
16 14 14 12 10 8 8 11 9 9 10 9 9 10 10 10 13 12 12 13 13 12
18 16 15 15 12 9 8 9 11 12 11 13 12 12 12 10 12 14 14 14 14 14
22 19 17 18 16 13 11 9 7 8 11 11 12 13 13 12 11 12 11 11 13 14
19 20 19 17 18 17 14 14 12 10 10 10 8 10 11 9 11 12 12 13 12 12
27 21 19 16 14 16 16 15 13 14 13 10 10 9 9 10 11 13 12 12 12 11
20 17 13 12 12 12 12 13 12 12 14 14 12 13 13 12 12 13 13 14 14 14
18 19 12 9 8 10 12 13 11 9 11 14 16 16 15 14 14 15 16 15 15 16
16 17 19 18 9 7 5 6 7 8 7 8 13 16 16 16 16 16 15 16 16 16
9 10 12 13 15 18 14 10 8 7 9 9 10 10 11 15 16 17 18 18 17 18
8 7 9 10 11 11 11 9 9 13 13 13 14 12 13 10 11 14 17 19 18 19
5 5 6 7 6 5 5 6 7 6 9 12 14 17 19 17 15 12 13 16 18 23
3 3 4 5 5 6 7 6 6 6 7 8 9 13 17 19 22 21 17 14 16 18

GFSNIL_850_spd_096.txt.gz
Wind_Speed
12 9 9 6 7 6 8 6 9 11 10 12 11 8 8 6 7 7 3 4 4 1
12 11 9 10 8 7 5 7 7 10 9 11 14 11 9 8 10 10 8 7 7 5
12 12 10 10 10 9 7 9 9 9 9 9 10 12 11 9 11 11 8 9 11 11
16 11 10 11 10 10 9 10 11 10 11 11 11 10 11 11 10 11 11 11 11 11
18 19 12 12 12 12 12 10 8 10 11 11 10 11 13 11 10 9 11 10 10 12
20 20 18 13 12 13 13 12 10 10 8 8 10 9 11 10 10 10 10 9 11 10
19 23 24 15 13 12 14 15 12 11 12 11 9 9 9 10 10 10 10 11 10 10
17 19 24 17 14 12 12 10 11 12 11 12 12 11 13 13 12 13 13 11 11 11
15 15 16 19 15 13 13 11 10 9 11 11 12 17 14 14 13 11 13 13 13 13
15 15 16 15 14 9 7 9 11 9 6 15 18 16 17 17 15 13 13 12 12 11
15 15 17 15 16 14 13 10 9 9 11 11 11 9 9 12 13 12 12 12 13 13
11 11 12 13 14 16 17 17 14 11 15 13 14 12 9 9 6 7 8 15 17 17
11 11 10 10 11 11 11 12 9 12 12 11 14 14 15 14 12 13 5 8 12 14
8 7 8 9 11 11 11 10 12 12 12 13 13 12 11 13 14 16 13 10 9 14

GFSNIL_850_spd_099.txt.gz
Wind_Speed
9 5 4 4 5 5 11 9 10 9 9 8 8 7 6 5 7 7 4 4 4 1
10 10 8 10 7 8 10 8 6 10 9 9 11 9 6 6 7 9 7 5 7 7
10 9 8 8 9 12 12 3 6 6 6 8 10 11 12 8 11 10 11 8 10 11
10 11 9 8 10 9 10 11 4 5 8 8 9 10 12 14 7 7 11 13 10 9
14 13 13 11 10 10 11 7 9 9 11 13 13 12 12 11 10 11 12 12 12 12
11 17 18 15 10 11 12 14 9 8 8 10 10 11 14 14 11 12 11 11 11 11
13 17 19 19 17 14 13 14 12 11 11 10 9 12 10 10 11 11 11 11 11 12
20 15 18 21 22 18 19 16 14 13 14 12 10 15 14 12 11 12 11 12 12 12
18 17 13 15 19 15 14 14 11 11 13 13 19 18 15 14 13 12 12 11 12 14
15 13 11 11 12 17 12 10 9 9 13 14 14 12 16 17 16 14 13 13 13 11
12 13 12 11 10 12 10 9 8 6 12 12 12 10 11 13 14 14 13 14 15 15
13 12 12 13 13 13 9 9 8 11 14 11 10 9 9 8 2 9 10 15 14 17
13 12 11 10 12 11 11 8 10 14 18 14 14 11 12 14 12 5 6 11 10 10
12 11 11 11 10 9 9 8 8 8 13 13 13 11 10 10 13 14 14 14 9 12

GFSNIL_850_spd_102.txt.gz
Wind_Speed
9 3 3 3 5 5 9 9 6 10 11 11 8 9 5 3 2 5 7 9 9 2
14 13 11 8 7 2 6 9 5 5 9 9 4 6 6 2 5 10 11 5 9 11
12 11 12 9 7 7 8 8 15 10 10 10 10 12 13 10 6 12 11 5 13 10
7 7 7 7 6 4 6 0 8 9 9 9 10 15 15 13 14 10 11 15 14 11
14 13 12 8 7 5 7 8 6 9 13 15 15 12 15 12 10 10 12 12 10 11
11 17 13 8 12 6 10 13 10 10 10 13 16 16 15 13 12 16 10 9 9 10
22 16 9 15 15 17 16 15 11 12 11 10 8 9 11 11 9 10 9 11 10 11
15 17 16 16 21 18 18 16 16 13 13 14 15 14 11 11 9 9 10 11 11 11
17 19 16 13 17 18 19 18 18 15 17 19 19 14 13 12 14 12 11 12 11 10
9 10 11 10 8 12 12 13 14 14 15 14 14 12 13 13 15 15 15 13 13 13
13 13 10 10 8 8 8 11 11 14 16 12 12 12 12 11 10 11 12 15 14 15
14 11 9 9 9 9 9 8 8 9 12 9 7 7 8 7 4 4 9 8 9 14
13 14 12 11 12 12 10 6 8 13 15 17 14 11 10 11 11 11 10 12 8 9
14 13 11 11 10 10 9 10 10 15 16 18 15 11 9 10 9 12 14 14 14 15

GFSNIL_850_spd_105.txt.gz
Wind_Speed
11 7 6 6 4 5 7 6 12 13 11 9 6 5 2 9 6 8 9 4 1 2
13 12 9 7 7 4 5 6 10 10 11 15 10 7 7 5 6 9 8 9 8 3
15 15 12 10 7 5 1 2 6 8 5 11 9 8 10 11 9 8 7 7 12 9
15 15 14 12 9 6 6 1 4 11 11 11 8 12 15 15 15 12 11 10 13 15
14 17 14 12 10 7 7 7 6 8 10 10 11 13 13 12 11 12 12 10 9 12
14 17 16 13 13 12 9 5 6 7 5 8 13 15 14 15 13 13 14 9 9 8
11 14 16 14 12 12 15 12 10 9 9 7 10 11 14 13 10 10 11 10 10 10
13 17 16 14 11 12 14 14 14 11 12 14 10 10 13 9 8 8 11 11 11 11
11 10 12 11 12 12 12 19 17 15 14 14 13 11 10 8 11 11 9 9 8 12
11 10 11 12 9 5 6 8 14 14 13 12 11 12 10 9 10 12 13 15 14 13
13 13 9 7 5 4 4 7 9 12 15 14 14 12 11 10 11 12 15 14 14 13
13 10 8 8 6 5 7 8 8 11 11 8 7 7 7 8 7 9 10 9 11 10
14 11 9 7 6 6 8 11 10 10 7 7 8 8 9 9 11 10 11 10 10 9
16 13 11 10 9 7 8 10 9 8 10 13 14 11 10 10 9 11 13 14 13 13

GFSNIL_850_spd_108.txt.gz
Wind_Speed
15 13 11 10 12 12 14 12 18 18 17 11 9 10 9 7 5 8 6 7 3 1
15 15 15 12 10 6 9 10 12 15 15 12 11 11 9 6 8 8 8 6 8 7
19 18 16 13 10 7 6 7 10 12 9 9 13 11 10 9 8 11 8 8 10 9
19 18 17 13 11 9 9 8 11 13 12 9 13 11 11 13 15 14 12 10 10 13
19 19 18 17 13 11 10 10 7 6 10 12 14 13 12 13 15 15 15 12 10 11
17 20 19 16 14 12 11 10 10 9 8 10 15 15 14 13 11 12 11 12 10 9
21 20 20 18 18 16 14 11 10 11 11 10 10 13 14 13 11 12 12 12 12 11
20 16 18 21 19 15 16 18 18 16 15 13 11 9 10 8 7 9 10 9 10 13
19 14 16 19 17 15 15 17 18 19 17 13 12 10 8 8 7 9 9 11 12 13
17 16 16 17 15 13 13 14 17 20 19 16 14 11 7 5 9 11 14 12 13 12
19 17 14 11 11 11 10 9 9 11 12 12 12 10 15 14 11 12 13 13 12 12
17 16 13 12 11 9 9 8 8 9 11 11 9 8 8 8 8 9 8 9 10 10
14 16 12 10 9 9 9 8 8 8 8 8 7 6 7 8 10 10 8 9 8 8
13 14 14 11 11 10 10 11 11 11 10 9 9 11 11 12 12 12 12 11 11 11

GFSNIL_850_spd_111.txt.gz
Wind_Speed
18 16 16 13 14 14 13 18 19 18 16 13 10 12 14 11 9 8 8 8 5 3
18 16 16 14 12 14 13 14 14 19 18 16 13 13 13 11 9 8 9 9 8 6
19 15 16 15 12 9 10 12 15 15 17 17 15 14 14 12 9 7 8 8 9 9
19 18 17 15 12 10 10 9 10 12 15 13 13 16 15 12 10 10 10 10 10 10
18 18 19 18 15 13 12 11 8 13 16 13 12 16 15 15 14 14 14 12 11 10
20 19 19 19 19 16 14 12 11 10 10 12 14 17 18 16 13 12 11 11 12 10
22 23 21 19 20 17 16 12 11 10 10 12 12 15 18 16 15 14 15 14 14 14
23 26 21 20 22 21 22 18 15 14 16 16 15 13 11 11 12 12 13 14 14 11
21 22 19 21 24 22 18 13 13 17 17 16 14 12 13 12 13 12 11 10 12 13
25 23 20 20 20 20 18 19 18 19 18 18 16 15 12 10 10 12 12 12 11 12
26 24 21 20 18 18 17 15 13 12 12 14 14 16 17 19 17 9 14 15 15 16
26 23 21 17 14 14 12 11 10 10 10 9 9 10 11 12 10 11 12 14 15 14
21 19 14 14 14 10 8 7 9 9 8 8 8 8 7 8 10 9 9 9 8 8
21 18 16 13 11 11 11 10 11 10 9 9 8 9 10 11 12 13 12 12 12 12

GFSNIL_850_spd_114.txt.gz
Wind_Speed
19 17 17 15 12 12 14 16 17 15 13 12 12 10 13 11 11 14 12 10 8 4
18 16 14 13 13 11 14 13 16 18 18 16 14 12 13 14 12 11 10 11 10 10
19 16 14 14 13 10 9 14 15 16 17 18 16 15 14 14 12 10 9 9 11 11
18 17 15 12 10 9 9 9 12 14 14 17 17 17 18 16 14 13 11 10 10 11
18 16 17 15 12 11 12 12 12 12 14 16 15 15 17 17 15 16 16 15 15 13
19 18 17 16 14 14 13 14 15 13 12 16 18 16 14 16 15 16 17 16 15 15
22 20 19 17 20 16 15 16 17 16 14 14 15 15 17 17 16 16 17 17 17 16
22 18 18 24 12 21 19 17 19 18 16 14 14 13 13 12 13 14 16 17 17 15
22 21 17 21 16 18 19 19 20 22 16 15 15 14 13 13 13 12 13 13 14 16
17 19 15 22 20 22 24 21 18 14 15 17 16 15 15 13 12 10 11 12 11 12
22 22 20 23 20 19 17 16 15 17 15 15 15 14 13 13 13 12 6 9 13 12
17 17 18 25 23 22 19 16 14 11 11 10 9 9 9 9 9 13 17 15 14 15
16 19 22 22 24 19 12 10 11 10 10 9 9 8 7 6 8 8 8 9 9 10
19 19 22 18 13 9 10 10 10 10 9 8 8 8 8 9 9 9 10 10 10 11

GFSNIL_850_spd_117.txt.gz
Wind_Speed
19 16 14 13 13 13 13 15 13 15 12 12 11 11 11 12 12 12 12 11 9 7
21 19 17 15 14 13 12 14 14 16 16 14 13 13 12 12 15 12 11 11 11 11
20 19 16 14 14 14 12 11 13 13 15 16 17 16 15 13 14 14 12 12 11 11
20 18 17 14 14 13 12 10 10 12 13 15 17 18 17 16 15 16 15 14 12 12
19 19 18 17 15 14 13 11 10 10 11 13 15 17 17 17 17 17 17 16 17 16
21 21 20 20 18 17 16 14 13 11 12 12 14 15 16 14 15 17 18 18 18 17
24 21 21 19 18 17 17 17 16 13 12 13 14 14 16 16 16 17 18 18 18 16
27 23 22 22 21 18 19 18 16 14 13 14 13 13 14 15 15 16 18 19 19 19
28 26 25 23 22 25 22 22 17 14 16 15 17 17 17 17 15 15 15 15 14 15
29 31 29 25 20 19 17 18 18 17 18 21 19 14 13 14 15 15 14 15 14 11
29 33 25 23 19 18 18 15 15 14 14 13 14 17 15 16 15 14 11 9 11 11
24 24 25 24 21 22 20 16 14 14 16 15 15 14 12 13 15 17 19 19 16 17
20 21 17 14 14 16 20 18 19 18 12 11 10 9 10 10 10 10 10 10 14 15
11 12 13 14 15 17 16 21 18 15 13 10 9 8 7 7 9 8 9 9 9 9

GFSNIL_850_spd_120.txt.gz
Wind_Speed
17 16 11 11 14 13 11 13 12 13 12 14 12 12 10 9 9 10 10 9 9 7
19 17 12 13 12 11 13 11 13 14 14 13 13 14 11 9 11 12 10 9 10 10
17 17 16 14 13 12 12 12 11 13 13 15 15 14 13 12 10 11 10 10 11 11
17 15 15 14 14 15 14 14 11 11 12 12 14 13 15 13 12 13 12 12 13 12
19 18 15 17 14 13 14 12 11 9 10 11 13 13 14 15 13 14 14 14 14 14
20 21 18 17 16 15 13 13 11 12 11 11 10 12 13 15 13 13 14 14 15 14
21 20 20 17 17 15 18 17 14 12 11 10 11 10 11 12 12 13 13 15 15 15
23 22 21 19 19 16 16 15 16 17 17 14 10 11 11 10 10 12 12 14 16 17
24 26 26 22 21 19 19 18 16 16 15 17 17 16 15 13 14 15 14 13 10 13
21 24 27 27 25 24 22 22 22 20 19 17 19 18 18 14 12 13 14 14 13 13
23 24 23 27 28 27 22 20 20 21 20 18 17 19 20 13 13 15 15 14 12 14
24 26 29 30 32 30 26 23 21 18 14 12 12 11 11 14 14 15 16 18 18 15
20 21 23 25 20 27 23 19 20 16 18 16 14 9 8 9 9 11 11 12 11 15
13 7 15 16 8 9 12 17 19 15 8 8 7 7 7 7 8 9 7 5 5 7

GFSNIL_850_spd_123.txt.gz
Wind_Speed
15 13 11 11 11 11 10 10 8 8 10 11 11 9 9 9 7 8 9 9 10 10
17 16 14 12 14 11 12 11 15 11 12 13 12 13 13 11 10 11 8 8 10 9
18 17 16 13 13 13 13 13 13 11 13 14 15 13 14 12 12 13 12 11 11 12
19 18 16 16 15 13 15 16 14 13 14 13 16 18 18 16 16 12 12 11 14 10
18 18 17 16 15 17 13 13 13 13 12 12 13 13 15 15 14 15 14 10 13 13
19 18 18 16 15 14 12 13 11 12 11 11 11 11 12 15 14 14 14 13 14 14
21 19 18 17 16 15 15 14 11 13 13 12 11 11 12 13 12 14 13 13 19 16
20 19 18 18 18 17 16 15 15 15 15 13 11 12 15 17 12 11 11 12 14 13
20 19 19 19 19 20 19 18 16 16 16 15 14 19 20 20 14 12 12 12 11 13
16 16 16 18 21 22 21 20 19 19 19 17 19 20 19 17 16 11 10 9 10 11
16 15 16 19 23 24 24 24 23 20 20 20 22 19 19 18 15 13 15 15 13 9
10 15 18 18 23 24 24 27 30 25 21 21 20 19 15 13 18 12 12 14 13 13
6 9 10 16 21 23 28 31 30 30 22 19 14 12 10 7 6 5 9 8 8 9
7 9 8 13 20 8 7 6 13 17 16 15 16 9 8 8 7 4 1 1 7 7